www.pogodaiklimat.ru

Погода и климат >> Архив погоды >> Иран >> Харк


ПОГОДА на Харке

  • Прогноз погоды на Харке
  • Монитор погоды на Харке

АРХИВ ПОГОДЫ на Харке

Время (UTC), дата Ветер
(напр.,м/с)
 
Видим.   Явления Облачность Т
(С)
Тd
(С)
f
(%)
Тe
(С)
Тes
(С)
Комфортность P
(гПа)
Po
(гПа)
Тmin
(С)
Tmax
(С)
R
(мм)
R24
(мм)
S
(см)
09 19.03 З 7 10 км ясно +19.2 +10.1 56 +20 +24 1018.5 1018.0
12 19.03 З 6 10 км ясно +20.0 +8.0 46 +21 +24 комфорт 1016.5 1016.0
15 19.03 З 4 10 км 1/0
[Ci fib]
+18.3 +9.6 57 +18 +18 1016.3 1015.8 +20.4 666
03 20.03 СЗ 6 10 км 1/0
[Ci fib]
+17.5 +10.7 64 +17 +17 1015.5 1015.0 +17.4 666
06 20.03 З 4 10 км 4/0
[Ci sp]
+19.3 +11.1 59 +20 +27 1015.8 1015.3
09 20.03 З 6 10 км 8/0
[Cs]
+20.4 +12.6 61 +22 +28 комфорт 1015.7 1015.2
12 20.03 З 5 10 км 1/0
[Ci fib]
+20.4 +12.6 61 +22 +26 комфорт 1013.3 1012.8
15 20.03 ЮЗ 3 10 км ясно +19.3 +13.2 68 +21 +21 комфорт 1012.9 1012.4 +20.7
03 21.03 СЗ 3 10 км 1/0
[Ci fib]
+18.4 +13.7 74 +19 +19 1014.0 1013.5 +18.2
06 21.03 штиль 0 10 км 6/0
[Ac trans Cs]
+21.2 +15.8 71 +24 +36 комфорт 1015.7 1015.2
09 21.03 СЗ 2 10 км 8/0
[Cs]
+21.6 +13.2 59 +24 +39 комфорт 1015.0 1014.5 666
12 21.03 З 4 10 км 6/0
[Cs]
+20.9 +16.7 77 +25 +29 комфорт 1013.3 1012.8
15 21.03 З 3 10 км 4/0
[Ci sp]
+20.5 +13.9 66 +23 +23 комфорт 1013.8 1013.3 +23.7 666
03 22.03 СЗ 2 10 км 3/0
[Ci fib]
+18.6 +16.1 85 +20 +20 1014.6 1014.1 +18.0
06 22.03 СВ 2 10 км ясно +21.1 +16.4 75 +25 +35 комфорт 1016.3 1015.8
09 22.03 штиль 0 10 км 3/0
[Ci fib]
+24.4 +9.7 39 +25 +47 комфорт 1015.7 1015.2
12 22.03 З 4 10 км 1/0
[Ci fib]
+26.3 +6.5 28 +26 +31 жарко 1013.5 1013.0
15 22.03 З 3 10 км 1/0
[Ci fib]
+22.9 +13.6 56 +26 +26 жарко 1012.8 1012.3 +26.4
03 23.03 В 2 10 км 3/0
[Ac trans]
+17.1 +14.2 83 +17 +18 1013.8 1013.3 +16.9
06 23.03 штиль 0 10 км 1/0
[Ac trans]
+22.2 +15.9 67 +26 +40 душно 1014.6 1014.1
09 23.03 С 2 10 км 1/0
[Ac trans]
+22.9 +15.1 61 +27 +43 душно 1013.1 1012.6 666
12 23.03 ЮЗ 2 10 км ясно +26.2 +12.9 44 +28 +35 жарко 1011.8 1011.3
15 23.03 З 2 10 км 8/0
[Cs]
+21.8 +15.3 67 +25 +25 комфорт 1011.1 1010.6 +26.9 666
03 24.03 В 2 10 км 4/0
[Ci sp]
+18.3 +16.3 88 +19 +19 1010.9 1010.4 +16.9
06 24.03 ЮЗ 5 10 км гроза, ливневой дождь ясно +20.7 +17.4 81 +24 +30 комфорт 1013.4 1012.9
09 24.03 В 5 8000 м мгла {гроза, дождь} 6/0
[Cs]
+22.5 +17.7 74 +28 +36 душно 1009.9 1009.4
12 24.03 В 7 10 км {гроза, дождь} 4/0
[Ci sp]
+25.6 +17.3 60 +30 +31 душно 1006.4 1005.9 3
15 24.03 ЮВ 4 10 км 6/0
[Cs]
+22.4 +18.3 78 +28 +28 душно 1005.0 1004.5 +26.1 666
03 25.03 В 7 4000 м гроза, ливневой дождь 10/8 750 м
[Cb cap As op]
+22.4 +18.3 78 +28 +28 душно 1004.4 1003.9 +21.3 666
06 25.03 В 5 7000 м в посл. час дождь {гроза} 10/8 300 м
[Cb calv As op]
+22.4 +18.6 79 +28 +28 душно 1005.2 1004.7 6
09 25.03 ЮВ 8 7000 м дымка {гроза, дождь} 10/8 900 м
[Cb calv As op]
+22.9 +19.6 82 +29 +29 очень
душно
1005.4 1004.9
12 25.03 В 6 7000 м дымка 10/8 900 м
[Cb calv As op]
+22.8 +19.4 81 +29 +29 очень
душно
1002.5 1002.0 3
15 25.03 СЗ 6 10 км 10/10 750 м
[Cb cap As op]
+20.8 +19.5 92 +25 +25 комфорт 1006.5 1006.0 +23.8
03 26.03 В 4 7000 м дымка {дождь} 10/5 900 м
[Cb calv As op]
+20.5 +19.1 92 +25 +25 комфорт 1008.2 1007.7 +19.7 666
06 26.03 ЮВ 4 5000 м слаб. дождь 10/6 900 м
[Cb calv As op]
+20.7 +19.7 94 +25 +26 комфорт 1010.0 1009.5 111

 

Местоположение метеостанции Харк (Иран): широта 29.26 долгота 50.32 высота над уровнем моря 3 м.

В архиве по умолчанию представлена погода на Харке за последнюю неделю. Архивные данные за месяц целиком и за предыдущие месяцы, начиная с января 2011 года, Вы можете получить, выбрав интересующий диапазон дат из раскрывающегося списка и нажав кнопку "Ввод!".


*Определитесь, кто Вы:
робот инопланетянин человек

Внимание! Время в таблицах - всемирное. Для получения местного времени необходимо прибавить поправку, которая равна 3.5 ч.

Смотрите также архив погоды в соседних городах и на ближайших метеорологических станциях:

Погода в Бушир аэропорту (Иран) (59 км)
Погода в Бушире (Иран) (62 км)
Погода в Гечсаране (Иран) (137 км)
Погода в Нувасибе (Кувейт) (175 км)
Погода в Умм-Аль-Марадим (Кувейт) (175 км)
Погода в Омидийе (Иран) (179 км)
Погода в Эль-Фао (Ирак) (193 км)
Погода на Бубияне (Кувейт) (196 км)
Погода в Ясудже (Иран) (198 км)
Погода Остров Файлака (Кувейт) (199 км)

Пояснения к столбцам:

Ветер - указаны скорость ветра в м/с - средняя за 10 мин, порывы в срок и между сроками (в фигурных скобках) и направление, откуда дует ветер: С - северный, СВ - северо-восточный, В - восточный, ЮВ - юго-восточный, Ю - южный, ЮЗ - юго-западный, З - западный, СЗ - северо-западный.
Видимость - горизонтальная дальность видимости в метрах или километрах. При видимости от 1 до 10 км при отсутствии осадков обычно наблюдается дымка, при ухудшении видимости до 1 км и менее - туман. В сухую погоду видимость может ухудшаться дымом, пылью или мглою.
Явления - указаны атмосферные явления, наблюдавшиеся в срок или в последний час перед сроком; фигурными скобками обозначены явления, наблюдавшиеся между сроками (за 1-3 часа до срока); квадратными скобками обозначены град или гололедные отложения с указанием их диаметра в мм.
Облачность - указаны через наклонную черту общая и нижняя облачность в баллах и высота нижней границы облаков в метрах; квадратными скобками обозначены формы облаков: Ci - перистые, Cs - перисто-слоистые, Cc - перисто-кучевые, Ac - высококучевые, As - высокослоистые, Sc - слоисто-кучевые, Ns - слоисто-дождевые, Cu - кучевые, Cb - кучево-дождевые. Подробнее классификацию облаков см. в Атласе облаков (PDF).
T - Температура воздуха - температура, измеренная на высоте 2 м над землей.
Td - Температура точки росы - температура, при понижении до которой содержащийся в воздухе водяной пар достигнет насыщения.
f - Относительная влажность воздуха - влажноcть воздуха, измеренная на высоте 2 м над землей.
Te - Эффективная температура - температура, которую ощущает одетый по сезону человек в тени. Характеристика душности погоды. При расчете учитывается влияние влажности воздуха и скорости ветра на теплоощущения человека.
Tes - Эффективная температура на солнце - температура, которую ощущает человек, с поправкой на солнечный нагрев. Характеристика знойности погоды. Зависит от высоты солнца над горизонтом, облачности и скорости ветра. Ночью, в пасмурную погоду, а также при ветре 12 м/с и более поправка равна нулю.
P - Атмосферное давление - приведенное к уровню моря атмосферное давление.
Po - Атмосферное давление - измеренное на уровне метеостанции атмосферное давление.
Tmin - Минимальная температура - минимум температуры воздуха на высоте 2 м над землей.
Tmax - Максимальная температура - максимум температуры воздуха на высоте 2 м над землей.
R - Количество осадков - Количество выпавших осадков за период времени, мм. При наведении курсора мыши на число - период времени, за который выпало указанное количество осадков.
R24 - Количество осадков - Количество выпавших осадков за 24 часа, мм.
S - Снежный покров - Высота снежного покрова, см. При наведении курсора мыши на число - состояние снежного покрова и степень покрытия местности в баллах.